Location: Bill Sadowski Park
(25.6087°N, 80.3181°W)
Time: 23:07:24
(UTC-04:00)

Tiangong 2 - Visible Passes

Search period start: 23 May 2019 00:00
Search period end: 02 June 2019 00:00
Orbit: 379 x 387 km, 42.8° (Epoch: 23 May)

Date Brightness Start Highest point End Pass type
(mag) Time Alt. Az. Time Alt. Az. Time Alt. Az.
29 May 4.0 22:14:10 10° N 22:14:55 12° N 22:14:55 12° N visible
30 May 4.7 22:49:32 10° NW 22:49:39 11° NW 22:49:39 11° NW visible
31 May 3.0 21:49:53 10° NNW 21:52:14 21° NNE 21:52:14 21° NNE visible
01 Jun 3.7 20:50:43 10° N 20:52:07 12° NNE 20:53:31 10° NE visible
01 Jun 3.8 22:25:58 10° NW 22:27:02 19° WNW 22:27:02 19° WNW visible
